Jessica W — WDB8889 — position and weather

sailwx.info

Track history (hours):
 
Tides and Currents Weather Stations Pressure Air Temp Water Temp Dewpoint Dewpoint Depression Visibility Wind Speed Wind Dir Waves Ship Positions

Jessica W

Owner: Block Island Ferry Services LLc, New London, CT. More information available from US FCC via Universal Licensing System and Coast Guard Vessel Documentation Center.

Last reported at 2017-Sep-17 01:18 UTC. Time now 2017-Sep-22 17:23 UTC.
Position N 41°20' W 072°05'.

Length 50 m; draft 3 m.

Type: High speed craft. MMSI: 366965960.

Date/timePositionNaut miles runAvg speedWind from/ knotsBaromVisibWave heightAir tempDewpointWater temp
2017-Sep-17 01:18N 41°20' W 072°05'924.2
2017-Sep-17 00:57N 41°14' W 071°58'1733.6
2017-Sep-17 00:27N 41°16' W 071°36'5 7.2
2017-Sep-16 23:42N 41°11' W 071°33'529.5
2017-Sep-16 23:31N 41°16' W 071°35'1734.1
2017-Sep-16 23:01N 41°14' W 071°57'8 8.5
2017-Sep-16 22:04N 41°20' W 072°05'115.9
2017-Sep-16 21:59N 41°19' W 072°05'1833.8
2017-Sep-16 21:26N 41°15' W 071°41'716.2
2017-Sep-16 21:00N 41°11' W 071°33'0 0.4
2017-Sep-16 20:30N 41°10' W 071°33'0 0.0
2017-Sep-16 20:00N 41°10' W 071°33'0 0.0
2017-Sep-16 19:30N 41°10' W 071°33'0 0.0
2017-Sep-16 19:00N 41°10' W 071°33'0 0.0
2017-Sep-16 18:21N 41°10' W 071°33'0 0.0
2017-Sep-16 18:00N 41°10' W 071°33'0 0.0
2017-Sep-16 17:30N 41°10' W 071°33'610.1
2017-Sep-16 16:57N 41°16' W 071°33'23 0.9
2017-Sep-15 14:23N 41°17' W 072°04'9 0.7
2017-Sep-15 00:21N 41°11' W 072°13'1 2.8
2017-Sep-14 23:57N 41°09' W 072°13'1 0.6
2017-Sep-14 21:54N 41°11' W 072°14'0 0.0
2017-Sep-14 13:55N 41°10' W 072°14'0 0.1
2017-Sep-14 11:54N 41°10' W 072°13'  
2017-Sep-11 19:04N 41°10' W 072°13'628.4
2017-Sep-11 18:52N 41°06' W 072°18'2 2.2
2017-Sep-11 17:44N 41°06' W 072°22'2 3.1
2017-Sep-11 17:10N 41°05' W 072°23'2 9.8
2017-Sep-11 16:59N 41°06' W 072°21'5 8.8
2017-Sep-11 16:22N 41°03' W 072°15'1229.0
2017-Sep-11 15:58N 41°13' W 072°06'11 5.6
2017-Sep-11 13:56N 41°06' W 072°18'3 1.3
2017-Sep-11 12:02N 41°06' W 072°22'0 0.0
2017-Sep-11 11:43N 41°06' W 072°22'0 0.0
2017-Sep-11 11:30N 41°06' W 072°22'713.0
2017-Sep-11 10:58N 41°09' W 072°13'  
2017-Sep-07 23:52N 41°10' W 072°13'0 0.1
2017-Sep-07 21:53N 41°09' W 072°13'1 0.1
2017-Sep-07 13:51N 41°10' W 072°13'0 0.2
2017-Sep-07 11:47N 41°11' W 072°13'  
Track history (hours):
 
Tides and Currents Weather Stations Pressure Air Temp Water Temp Dewpoint Dewpoint Depression Visibility Wind Speed Wind Dir Waves Ship Positions

Jessica W

Owner: Block Island Ferry Services LLc, New London, CT. More information available from US FCC via Universal Licensing System and Coast Guard Vessel Documentation Center.

Last reported at 2017-Sep-17 01:18 UTC. Time now 2017-Sep-22 17:23 UTC.
Position N 41°20' W 072°05'.

Length 50 m; draft 3 m.

Type: High speed craft. MMSI: 366965960.

Date/timePositionNaut miles runAvg speedWind from/ knotsBaromVisibWave heightAir tempDewpointWater temp
2017-Sep-17 01:18N 41°20' W 072°05'924.2
2017-Sep-17 00:57N 41°14' W 071°58'1733.6
2017-Sep-17 00:27N 41°16' W 071°36'5 7.2
2017-Sep-16 23:42N 41°11' W 071°33'529.5
2017-Sep-16 23:31N 41°16' W 071°35'1734.1
2017-Sep-16 23:01N 41°14' W 071°57'8 8.5
2017-Sep-16 22:04N 41°20' W 072°05'115.9
2017-Sep-16 21:59N 41°19' W 072°05'1833.8
2017-Sep-16 21:26N 41°15' W 071°41'716.2
2017-Sep-16 21:00N 41°11' W 071°33'0 0.4
2017-Sep-16 20:30N 41°10' W 071°33'0 0.0
2017-Sep-16 20:00N 41°10' W 071°33'0 0.0
2017-Sep-16 19:30N 41°10' W 071°33'0 0.0
2017-Sep-16 19:00N 41°10' W 071°33'0 0.0
2017-Sep-16 18:21N 41°10' W 071°33'0 0.0
2017-Sep-16 18:00N 41°10' W 071°33'0 0.0
2017-Sep-16 17:30N 41°10' W 071°33'610.1
2017-Sep-16 16:57N 41°16' W 071°33'23 0.9
2017-Sep-15 14:23N 41°17' W 072°04'9 0.7
2017-Sep-15 00:21N 41°11' W 072°13'1 2.8
2017-Sep-14 23:57N 41°09' W 072°13'1 0.6
2017-Sep-14 21:54N 41°11' W 072°14'0 0.0
2017-Sep-14 13:55N 41°10' W 072°14'0 0.1
2017-Sep-14 11:54N 41°10' W 072°13'  
2017-Sep-11 19:04N 41°10' W 072°13'628.4
2017-Sep-11 18:52N 41°06' W 072°18'2 2.2
2017-Sep-11 17:44N 41°06' W 072°22'2 3.1
2017-Sep-11 17:10N 41°05' W 072°23'2 9.8
2017-Sep-11 16:59N 41°06' W 072°21'5 8.8
2017-Sep-11 16:22N 41°03' W 072°15'1229.0
2017-Sep-11 15:58N 41°13' W 072°06'11 5.6
2017-Sep-11 13:56N 41°06' W 072°18'3 1.3
2017-Sep-11 12:02N 41°06' W 072°22'0 0.0
2017-Sep-11 11:43N 41°06' W 072°22'0 0.0
2017-Sep-11 11:30N 41°06' W 072°22'713.0
2017-Sep-11 10:58N 41°09' W 072°13'  
2017-Sep-07 23:52N 41°10' W 072°13'0 0.1
2017-Sep-07 21:53N 41°09' W 072°13'1 0.1
2017-Sep-07 13:51N 41°10' W 072°13'0 0.2
2017-Sep-07 11:47N 41°11' W 072°13'  

Dump ship's entire track history